331  
ASUS41 KGYX 240310  
RWRGYX  
WEATHER ROUNDUP FOR MAINE AND NEW HAMPSHIRE  
NATIONAL WEATHER SERVICE GRAY ME  
1100 PM EDT MON OCT 23 2017  
 
MEZ002-005-006-010-012-015-018-020-021-024-026-027-029-240400-  
MAINE  
 
CITY SKY/WX TMP DP RH WIND PRES REMARKS
 
PORTLAND FOG 56 56 100 SE8 30.19F VSB 1/4  
SANFORD FOG 56 56 100 NE3 30.19F VSB 1/4  
BAR HARBOR CLOUDY 56 56 100 CALM 30.22F FOG  
WISCASSET FOG 56 56 100 CALM 30.21F VSB 1/4  
ROCKLAND LGT RAIN 56 56 100 NE3 30.21F VSB 1/2  
FRYEBURG CLOUDY 57 57 100 E3 30.18F  
LEWISTONAUBURN LGT RAIN 55 55 100 SE3 30.20F VSB 3/4  
AUGUSTA FOG 54 54 100 S8 30.20F VSB 1/4  
WATERVILLE CLOUDY 56 55 97 CALM 30.17F FOG  
BANGOR FOG 55 54 96 SW6 30.21S VSB 1/4  
GREENVILLE N/A 51 51 100 S8 30.16F  
MILLINOCKET CLOUDY 55 54 96 S3 30.19S  
HOULTON CLOUDY 56 54 93 S6 30.16S  
PRESQUE ISLE CLEAR 48 45 89 S5 30.14F  
FRENCHVILLE CLOUDY 50 45 83 S9 30.11S  
CARIBOU CLEAR 50 45 83 S7 30.12F  

 
 
NHZ002-005-008-009-011-012-014-240400-  
NEW HAMPSHIRE  
 
CITY SKY/WX TMP DP RH WIND PRES REMARKS
 
PORTSMOUTH FOG 57 57 99 NE3 30.16F VSB 1/8  
ROCHESTER FOG 56 54 93 CALM 30.17F VSB 1/4  
NASHUA CLOUDY 61 59 94 SE3 30.15F  
MANCHESTER CLOUDY 61 60 97 S5 30.13F  
CONCORD CLOUDY 58 56 93 CALM 30.16F  
LACONIA CLOUDY 56 54 93 CALM 30.16F  
PLYMOUTH CLOUDY 58 54 86 CALM 30.15F  
BERLIN CLEAR 47 46 97 N3 30.15F  
WHITEFIELD PTCLDY 48 45 89 CALM 30.13F  
JAFFREY MOCLDY 62 61 96 S3 30.14F  
KEENE MOCLDY 58 56 93 VRB5 30.11F  
LEBANON CLOUDY 63 57 81 VRB3 30.10F  
MT WASHINGTON FOG 43 43 100 S48G56 N/A VSB 0  

 
 
VTZ005-007-008-240400-  
VERMONT  
 
CITY SKY/WX TMP DP RH WIND PRES REMARKS
 
ST JOHNSBURY N/A 56 54 93 MISG 30.09F  
BURLINGTON MOCLDY 69 54 58 S13 29.99F  

 
 
MAZ007-012-024-CTZ003-RIZ002-NYZ038-NYZ072-240400-  
SOUTHERN NEW ENGLAND AND NY  
 
CITY SKY/WX TMP DP RH WIND PRES REMARKS
 
BOSTON CLOUDY 60 59 96 E6 30.16F  
WORCESTER CLOUDY 62 59 90 SE8 30.15F  
NANTUCKET CLOUDY 64 62 93 SE16 30.20F  
PROVIDENCE CLOUDY 67 65 93 S13G22 30.15F  
HARTFORD CLOUDY 63 62 97 S3 30.09F  
ALBANY CLOUDY 69 58 67 S10G17 30.01F  
NEW YORK CITY CLOUDY 71 64 78 S18G32 30.02F  

 
 
ANZ081-ANZ082-ANZ150-NHZ014-MEZ023>029-240400-  
COASTAL MARINE OBSERVATIONS  
 
STATION/POSITION TIME TEMP WIND PRES WAVE
 
AIR SEA DIR/SP/G HT/PER  
(UTC) (F) (DEG/KT/KT) (MB) (FT/S)  
MOUNT DESERT ROC 0300 57 160/ 13/ 13 1023.5F  
MATINICUS ROCK 0200 57 150/ 12/ 13 1022.9F  
ISLE OF SHOALS 0200 60 170/ 7/ 8 1021.9F  
JEFFREYS LEDGE 0236 59 N/A 2/10  
GEORGES BANK BUO 0150 62 60 1025.6 3/ 9  

 
   
............KEY...........
 
 
WCI - WIND CHILL  
TC - TEMPERATURE IN CELSIUS  
VSB - VISIBILITY
IN MILES  
HX - HEAT INDEX  
FAIR- INDICATES FEW OR NO CLOUDS BELOW 12,000 FT, WITH NO  
SIGNIFICANT WEATHER AND/OR S TO VISIBILITY.  
 
 
 
CLICK HERE TO GO TO PREVIOUS BULLETINS.

The Nexlab ME Page
The Nexlab NH Page Main Text Page